Tracking 29892 objects as of 21-Nov-2024
HD Live streaming from Space Station
objects crossing your sky now

STARLINK-1987

Track STARLINK-1987 now!
10-day predictions
STARLINK-1987 is classified as:


NORAD ID: 47583
Int'l Code: 2021-009AM
Perigee: 468.2 km
Apogee: 470.1 km
Inclination: 53.1 °
Period: 93.8 minutes
Semi major axis: 6840 km
RCS: Unknown
Launch date: February 4, 2021
Source: United States (US)
Launch site: AIR FORCE EASTERN TEST RANGE (AFETR)
Your satellite tracking list
Your tracking list is empty




NASA's NSSDC Master Catalog

Two Line Element Set (TLE):
1 47583U 21009AM  24325.91668981  .00551491  00000-0  15056-1 0  9996
2 47583  53.0579 344.9061 0001406  86.8534 126.6985 15.34631543  5591
Source of the keplerian elements: AFSPC